{"data":{"norad_id":61970,"epoch":"2026-09-21T23:07:03.760608Z","epoch_age_seconds":59223,"freshness":"FRESH","line1":"1 61970U 24210M   26264.96323797  .00019741  00000+0  72480-3 0  9993","line2":"2 61970  42.9993 151.7009 0001999 276.9972  83.0652 15.27586987104933","mean_motion":15.27586987,"eccentricity":0.0001999,"inclination_deg":42.9993,"raan_deg":151.7009,"arg_perigee_deg":276.9972,"mean_anomaly_deg":83.0652,"bstar":0.0007248,"rev_number":10493,"period_min":94.266317548828,"perigee_km":481.65662760945,"apogee_km":484.39972144622,"semimajor_km":6861.1651745278,"source":"CELESTRAK","updated_at":"2026-09-22T09:00:49.479130Z"}}